Fairfield, IA

1:53 AM CST on December 10, 2019 (GMT -0600)
Fairfield Municipal

Weather History for KFFL - September, 2019

Change the Weather History Date:

Wednesday, September 25, 2019

  Actual Average Record
Temperature  
Mean Temperature 69 °F -  
Max Temperature 78 °F 72 °F 89 °F (1999)
Min Temperature 60 °F 50 °F 35 °F (2003)
Cooling Degree Days 4    
Growing Degree Days 19 (Base 50)    
Moisture  
Dew Point 57 °F    
Average Humidity 69    
Maximum Humidity 100    
Minimum Humidity 34    
Precipitation  
Precipitation 0.01 in - - ()
Sea Level Pressure  
Sea Level Pressure 29.82 in    
Wind  
Wind Speed 10 mph (WNW)    
Max Wind Speed 16 mph    
Max Gust Speed 23 mph    
Visibility 10 miles    
Events      
Averages and records for this station are not official NWS values.
T = Trace of Precipitation, MM = Missing Value Source: NWS Daily Summary

Daily Weather History Graph

Daily Weather History Graph

Search for Another Location

Airport or City:

Astronomy

Sep. 25, 2019 Rise Set
Actual Time 6:58 AM CDT 7:00 PM CDT
Civil Twilight 6:30 AM CDT 7:27 PM CDT
Nautical Twilight 5:58 AM CDT 7:59 PM CDT
Astronomical Twilight 5:26 AM CDT 8:32 PM CDT
Moon 2:49 AM CDT (9/25) 5:34 PM CDT (9/25)
Length of Visible Light 12h 56m
Length of Day
12h 02m
Waning Crescent, 14% of the Moon is Illuminated
Sep 25
Waning Crescent
Sep 28
New
Oct 5
First Quarter
Oct 13
Full
Oct 21
Last Quarter

Hourly Weather History & Observations

Time (CDT) Temp. Dew Point Humidity Pressure Visibility Wind Dir Wind Speed Gust Speed Precip Events Conditions
12:15 AM 66.2 °F 60.8 °F 83% 29.75 in 10.0 mi South 6.9 mph 13.8 mph N/A   Overcast
12:35 AM 66.2 °F 60.8 °F 83% 29.75 in 10.0 mi South 9.2 mph - N/A   Overcast
1:15 AM 68.0 °F 62.6 °F 83% 29.72 in 10.0 mi South 12.7 mph 20.7 mph N/A   Overcast
1:35 AM 68.0 °F 62.6 °F 83% 29.71 in 10.0 mi South 11.5 mph 18.4 mph N/A   Overcast
1:55 AM 66.2 °F 64.4 °F 94% 29.69 in 7.0 mi South 13.8 mph 23.0 mph 0.01 in   Overcast
2:15 AM 66.2 °F 64.4 °F 94% 29.71 in 10.0 mi SSW 10.4 mph 17.3 mph N/A   Overcast
2:35 AM 66.2 °F 66.2 °F 100% 29.70 in 10.0 mi SSW 13.8 mph 19.6 mph N/A   Overcast
2:55 AM 66.2 °F 66.2 °F 100% 29.70 in 10.0 mi SSW 12.7 mph 18.4 mph N/A   Overcast
3:15 AM 66.2 °F 66.2 °F 100% 29.69 in 10.0 mi SSW 8.1 mph - N/A   Overcast
3:35 AM 66.2 °F 66.2 °F 100% 29.69 in 10.0 mi SW 9.2 mph - N/A   Overcast
3:55 AM 66.2 °F 66.2 °F 100% 29.70 in 10.0 mi SSW 6.9 mph - N/A   Overcast
4:15 AM 66.2 °F 66.2 °F 100% 29.71 in 10.0 mi SSW 8.1 mph - N/A   Overcast
4:35 AM 66.2 °F 66.2 °F 100% 29.71 in 10.0 mi SSW 6.9 mph 12.7 mph N/A   Mostly Cloudy
4:55 AM 66.2 °F 66.2 °F 100% 29.72 in 10.0 mi SW 6.9 mph - N/A   Clear
5:15 AM 66.2 °F 66.2 °F 100% 29.73 in 10.0 mi WSW 5.8 mph - N/A   Mostly Cloudy
5:35 AM 68.0 °F 68.0 °F 100% 29.74 in 10.0 mi WSW 6.9 mph - N/A   Overcast
5:55 AM 68.0 °F 68.0 °F 100% 29.74 in 10.0 mi West 5.8 mph - N/A   Overcast
6:15 AM 66.2 °F 66.2 °F 100% 29.74 in 10.0 mi West 8.1 mph - N/A   Partly Cloudy
6:35 AM 66.2 °F 66.2 °F 100% 29.75 in 10.0 mi West 8.1 mph - N/A   Clear
6:55 AM 66.2 °F 66.2 °F 100% 29.75 in 10.0 mi West 6.9 mph - N/A   Clear
7:15 AM 64.4 °F 64.4 °F 100% 29.76 in 10.0 mi WNW 8.1 mph - N/A   Clear
7:35 AM 64.4 °F 64.4 °F 100% 29.78 in 10.0 mi WNW 9.2 mph - N/A   Clear
7:55 AM 64.4 °F 64.4 °F 100% 29.78 in 10.0 mi West 5.8 mph - N/A   Clear
8:15 AM 64.4 °F 64.4 °F 100% 29.79 in 10.0 mi West 6.9 mph - N/A   Clear
8:35 AM 66.2 °F 66.2 °F 100% 29.79 in 10.0 mi West 8.1 mph - N/A   Clear
8:55 AM 68.0 °F 64.4 °F 88% 29.80 in 10.0 mi West 9.2 mph - N/A   Clear
9:15 AM 68.0 °F 64.4 °F 88% 29.81 in 10.0 mi West 6.9 mph - N/A   Clear
9:35 AM 69.8 °F 64.4 °F 83% 29.81 in 10.0 mi WNW 8.1 mph - N/A   Clear
9:55 AM 71.6 °F 64.4 °F 78% 29.82 in 10.0 mi WNW 8.1 mph - N/A   Clear
10:15 AM 73.4 °F 60.8 °F 65% 29.82 in 10.0 mi WNW 8.1 mph - N/A   Clear
10:35 AM 73.4 °F 59.0 °F 61% 29.83 in 10.0 mi NW 11.5 mph - N/A   Clear
10:55 AM 75.2 °F 57.2 °F 53% 29.83 in 10.0 mi NW 11.5 mph - N/A   Clear
11:15 AM 75.2 °F 57.2 °F 53% 29.83 in 10.0 mi NW 12.7 mph - N/A   Clear
11:35 AM 75.2 °F 57.2 °F 53% 29.83 in 10.0 mi NNW 16.1 mph - N/A   Clear
11:55 AM 75.2 °F 57.2 °F 53% 29.84 in - NW 10.4 mph 18.4 mph N/A   Clear
12:15 PM 77.0 °F 55.4 °F 47% 29.83 in 10.0 mi WNW 12.7 mph - N/A   Clear
12:35 PM 77.0 °F 55.4 °F 47% 29.83 in 10.0 mi NW 9.2 mph 17.3 mph N/A   Clear
12:55 PM 77.0 °F 53.6 °F 44% 29.83 in 10.0 mi NW 12.7 mph 20.7 mph N/A   Clear
1:15 PM 77.0 °F 51.8 °F 41% 29.83 in 10.0 mi NW 12.7 mph 19.6 mph N/A   Clear
1:35 PM 77.0 °F 51.8 °F 41% 29.82 in 10.0 mi NW 9.2 mph 17.3 mph N/A   Clear
1:55 PM 78.8 °F 51.8 °F 39% 29.82 in 10.0 mi NW 10.4 mph 17.3 mph N/A   Clear
2:15 PM 78.8 °F 51.8 °F 39% 29.83 in 10.0 mi NNW 13.8 mph - N/A   Clear
2:35 PM 78.8 °F 50.0 °F 36% 29.83 in 10.0 mi NW 13.8 mph 19.6 mph N/A   Clear
2:55 PM 77.0 °F 46.4 °F 34% 29.84 in 10.0 mi NW 16.1 mph - N/A   Clear
3:15 PM 77.0 °F 50.0 °F 39% 29.84 in 10.0 mi NW 15.0 mph 21.9 mph N/A   Clear
3:35 PM 77.0 °F 46.4 °F 34% 29.84 in 10.0 mi NW 12.7 mph 19.6 mph N/A   Clear
3:55 PM 77.0 °F 46.4 °F 34% 29.85 in 10.0 mi NW 12.7 mph 20.7 mph N/A   Clear
4:15 PM 75.2 °F 48.2 °F 38% 29.85 in 10.0 mi NW 15.0 mph 21.9 mph N/A   Clear
4:35 PM 75.2 °F 48.2 °F 38% 29.86 in 10.0 mi NNW 15.0 mph - N/A   Clear
4:55 PM 75.2 °F 48.2 °F 38% 29.86 in 10.0 mi NNW 12.7 mph 19.6 mph N/A   Clear
5:15 PM 73.4 °F 48.2 °F 41% 29.87 in 10.0 mi NW 13.8 mph - N/A   Clear
5:35 PM 71.6 °F 48.2 °F 43% 29.88 in 10.0 mi NW 11.5 mph 17.3 mph N/A   Mostly Cloudy
5:55 PM 71.6 °F 50.0 °F 46% 29.87 in 10.0 mi NW 6.9 mph - N/A   Overcast
6:15 PM 71.6 °F 50.0 °F 46% 29.88 in 10.0 mi NW 5.8 mph - N/A   Overcast
6:35 PM 68.0 °F 48.2 °F 49% 29.88 in 10.0 mi WNW 8.1 mph - N/A   Scattered Clouds
6:55 PM 66.2 °F 48.2 °F 52% 29.88 in 10.0 mi WNW 9.2 mph - N/A   Clear
7:15 PM 66.2 °F 46.4 °F 49% 29.90 in 10.0 mi WNW 10.4 mph - N/A   Mostly Cloudy
7:35 PM 66.2 °F 46.4 °F 49% 29.90 in 10.0 mi NW 9.2 mph 15.0 mph N/A   Overcast
7:55 PM 66.2 °F 48.2 °F 52% 29.92 in 10.0 mi NW 9.2 mph - N/A   Overcast
8:15 PM 64.4 °F 48.2 °F 56% 29.92 in 10.0 mi NW 8.1 mph - N/A   Overcast
8:35 PM 64.4 °F 50.0 °F 59% 29.93 in 10.0 mi NW 6.9 mph - N/A   Overcast
8:55 PM 62.6 °F 51.8 °F 68% 29.94 in 10.0 mi WNW 6.9 mph - N/A   Overcast
9:15 PM 64.4 °F 51.8 °F 64% 29.95 in 10.0 mi WNW 8.1 mph 13.8 mph N/A   Overcast
9:35 PM 62.6 °F 51.8 °F 68% 29.96 in 10.0 mi WNW 8.1 mph - N/A   Overcast
9:55 PM 62.6 °F 51.8 °F 68% 29.96 in 10.0 mi WNW 6.9 mph - N/A   Overcast
10:15 PM 62.6 °F 51.8 °F 68% 29.96 in 10.0 mi WNW 6.9 mph - N/A   Overcast
10:35 PM 62.6 °F 51.8 °F 68% 29.96 in 10.0 mi West 5.8 mph - N/A   Mostly Cloudy
10:55 PM 62.6 °F 51.8 °F 68% 29.97 in 10.0 mi WNW 6.9 mph - N/A   Overcast
11:15 PM 60.8 °F 51.8 °F 72% 29.98 in 10.0 mi WNW 9.2 mph - N/A   Overcast
11:35 PM 60.8 °F 51.8 °F 72% 29.98 in 10.0 mi WNW 9.2 mph - N/A   Overcast
11:55 PM 60.8 °F 50.0 °F 68% 29.98 in 10.0 mi NW 8.1 mph - N/A   Overcast